STARLINK-37227, 68558

Orbit data source: Space-Track

STARLINK-37227, 68558 is a payload satellite owned by SpaceX/Seattle (US) in LEO that was launched on Thu, 02 Apr 2026 UTC via an FALCON 9 launch vehicle from the Air Force Eastern Test Range (AFETR). Payload-class satellites include a variety of spacecraft equipped with specific instruments for various scientific and technological missions. These include communications satellites like Starlink; space stations such as the ISS; scientific satellites like the Hubble; Earth observation satellites from companies like Planet Labs, Umbra, and HawkEye 360; GPS; miniature CubeSats for education and research; and military/defense satellites.

Loading next visibility...
Identifier
68558, 2026-070S
Orbit
LEO
Country
Flag of USUS
Related business
Manufacturer
SpaceX/Seattle
Mission
Operational Commercial Communications
Bus & Motor
STARLINK V2MO, Unknown motor
Mass
575 kg wet, ~530 kg dry
Launch date (UTC)
2026-04-02 (5 months ago)
Launch vehicle
FALCON 9
Launch site
Air Force Eastern Test Range (AFETR)
Object type
Payload
Rocket body
Debris
Shape & HBR
Box + 1 Pan, 17.7 m
Radar Cross Section
41.120 m², Large (>1 m²)

Expand to show TLE details & history
Last TLE update: 1 day ago

TLE from 1 day ago
0 STARLINK-37227
1 68558U 26070S   26246.39817672  .00010880  00000-0  33269-3 0  9993
2 68558  53.1587 253.5321 0001474  74.1229 285.9936 15.34398740 23815
Epoch: 2026-09-03T09:33Z
TLE epoch observation values (Epoch: 2026-09-03T09:33:22.468Z)
Latitude
-0.00002°
Longitude
127.65154°
Altitude
463.331 km
Speed
7.636 km/s
True Right ascension
16h 54m 07s
True Declination
0° 00' 00"
Sunlit
Object was in daylight at epoch
Visualization orbit readout
Latitude
Unknown
Longitude
Unknown
Altitude
Unknown
Speed
Unknown
Apparent Right ascension
Unknown
Apparent Declination
Unknown
Sunlit
N/A
Visualization observer readout
Local Sidereal Time
01:36:16
Azimuth
Unknown
Elevation
Unknown
Doppler factor
Unknown
Orbital elements
Apogee altitude
463.972 km
Perigee altitude
461.956 km
Semi-major axis
6,841.101 km
Eccentricity
0.00015
Inclination
53.1587°
RAAN
253.5321°
Arg. of periapsis
74.1229°
True anomaly
285.97736°
Mean anomaly
285.9936°
Eccentric anomaly
285.98548°
Mean motion
3.83578 °/min
Orbital period
93.85 mins
BSTAR
0.00033269
Loading maneuver chart data...
Computing Atmospheric mass density...
Loading historical data...
Loading historical data...
Loading historical data...
Loading historical data...
Loading historical data...
Loading historical data...
Loading historical data...

Documentation

Showing up to 5 results
|